Location: Dampvalley
(47.9094°N, 6.1967°E)
Time: 09:29:31
(UTC+00:00)

AO-109 - Pass Details

Date: 01 December 2021
Orbit: 478 x 516 km, 60.7° (Epoch: 21 January)

Event Time Altitude Azimuth Distance (km) Brightness Sun altitude
Exits shadow 04:10:44 16° 38° (NE) 1,346 ? -28.2°
Drops below altitude 10° 04:12:19 10° 63° (ENE) 1,658 ? -27.9°
Sets 04:15:03 0° 84° (E) 2,534 ? -27.4°
